STARLINK-1797, 46698

Orbit data source: Space-Track

STARLINK-1797, 46698 is a payload satellite owned by SpaceX/Seattle (US) in LEO that was launched on Sun, 18 Oct 2020 UTC via an FALCON 9 launch vehicle from the Air Force Eastern Test Range (AFETR). Payload-class satellites include a variety of spacecraft equipped with specific instruments for various scientific and technological missions. These include communications satellites like Starlink; space stations such as the ISS; scientific satellites like the Hubble; Earth observation satellites from companies like Planet Labs, Umbra, and HawkEye 360; GPS; miniature CubeSats for education and research; and military/defense satellites.

Loading next visibility...
Identifier
46698, 2020-073AE
Orbit
LEO
Country
Flag of USUS
Related business
Manufacturer
SpaceX/Seattle
Mission
Operational Commercial Communications
Bus & Motor
STARLINK, Unknown motor
Mass
260 kg wet, ~248 kg dry
Launch date (UTC)
2020-10-18 (5 years ago)
Launch vehicle
FALCON 9
Launch site
Air Force Eastern Test Range (AFETR)
Object type
Payload
Rocket body
Debris
Shape & HBR
Box + 1 Pan, 10.1 m
Radar Cross Section
13.562 m², Large (>1 m²)

Expand to show TLE details & history
Last TLE update: 15 hours ago

TLE from 15 hours ago
0 STARLINK-1797
1 46698U 20073AE  25306.50002315  .00003316  00000-0  12303-3 0  9992
2 46698  53.0540  91.7488 0000861  99.0310 155.0835 15.30469827  5722
Epoch: 2025-11-02T12:00Z
TLE epoch observation values (Epoch: 2025-11-02T12:00:02.000Z)
Latitude
-50.40519°
Longitude
114.44902°
Altitude
492.345 km
Speed
7.618 km/s
True Right ascension
22h 25m 53s
True Declination
-50° 13' 47"
Sunlit
Object was in daylight at epoch
Visualization orbit readout
Latitude
Unknown
Longitude
Unknown
Altitude
Unknown
Speed
Unknown
Apparent Right ascension
Unknown
Apparent Declination
Unknown
Sunlit
N/A
Visualization observer readout
Local Sidereal Time
22:55:46
Azimuth
Unknown
Elevation
Unknown
Doppler factor
Unknown
Orbital elements
Apogee altitude
475.273 km
Perigee altitude
474.093 km
Semi-major axis
6,852.82 km
Eccentricity
0.00009
Inclination
53.054°
RAAN
91.7488°
Arg. of periapsis
99.031°
True anomaly
155.08766°
Mean anomaly
155.0835°
Eccentric anomaly
155.08558°
Mean motion
3.82595 °/min
Orbital period
94.09 mins
BSTAR
0.00012303
Loading maneuver chart data...
Computing Atmospheric mass density...
Loading historical data...
Loading historical data...
Loading historical data...
Loading historical data...
Loading historical data...
Loading historical data...
Loading historical data...

Documentation

Showing up to 5 results
|